Miscellaneous Local Product
Issued by NWS North Platte, NE

Home | Current Version | Previous Version | Graphics & Text | Print | Product List | Glossary On
Versions: 1 2 3 4 5 6 7 8 9 10 11 12 13 14 15 16 17 18 19 20 21 22 23 24 25 26 27 28 29 30 31 32 33 34 35 36 37 38 39 40 41 42 43 44 45 46 47 48 49 50
000
AXUS43 KLBF 311510
MISLBF


WESTERN AND NORTH CENTRAL NEBRASKA HOURLY WEATHER ROUNDUP
NATIONAL WEATHER SERVICE NORTH PLATTE NE
1000 AM CDT MON AUG 31 2015

NOTE: "FAIR" INDICATES FEW OR NO CLOUDS BELOW 12,000 FEET WITH NO
SIGNIFICANT WEATHER AND/OR OBSTRUCTIONS TO VISIBILITY.

NOTE: STATIONS NOT REPORTING VARIABLES SUCH AS SKY/WEATHER OR
PRESSURE ARE PROVIDED BY THE NEBRASKA DEPARTMENT OF
ROADS...RAWS...AND APRS NETWORKS...AND ARE NOT UNDER
NATIONAL WEATHER SERVICE QUALITY CONTROL.

...OBSERVATIONS IN AND NEAR THE EASTERN PANHANDLE OF NEBRASKA...

CITY           SKY/WX    TMP DP  RH WIND       PRES   REMARKS
PINE RIDGE     CLOUDY    78  52  40 W5        29.95R
CHADRON        LGT RAIN  76  53  44 W9        29.94R
ALLIANCE       PTSUNNY   77  54  44 W6        29.99R
SIDNEY         PTSUNNY   75  52  44 N10       30.02S
CRESCENT LAKE    N/A     77  51  39 N5G12       N/A
BIG SPRINGS      N/A     73  54  51 CALM        N/A
$$

...OBSERVATIONS IN NORTH CENTRAL NEBRASKA...

CITY           SKY/WX    TMP DP  RH WIND       PRES   REMARKS
VALENTINE      MOSUNNY   78  51  38 SW10      29.88R
THEDFORD       MOSUNNY   76  55  48 SW12      29.95S
AINSWORTH      MOSUNNY   74  56  52 SW13      29.90S
O`NEILL        SUNNY     72  66  80 S10       29.90S
ORD            SUNNY     70  64  81 S12       29.92R
BROKEN BOW     SUNNY     70  63  78 SW8       29.94R
SPRINGVIEW       N/A     74  59  59 W3          N/A
SARGENT          N/A     68  64  85 SW5         N/A
CHAMBERS         N/A     73  66  79 S7          N/A
EWING            N/A     70  64  81 S7          N/A
$$

...OBSERVATIONS IN SOUTHWEST NEBRASKA AND FAR NORTHEAST COLORADO...

CITY           SKY/WX    TMP DP  RH WIND       PRES   REMARKS
WRAY           FAIR      78  50  37 CALM      29.99R
HOLYOKE        FAIR      79  50  36 NW9       30.00R
IMPERIAL       SUNNY     71  52  50 SW3       29.96S
OGALLALA       SUNNY     67  52  58 CALM      29.96S
NORTH PLATTE   SUNNY     71  59  65 S8        29.94F
MCCOOK         SUNNY     71  59  65 S5        29.95R
LEXINGTON      SUNNY     73  65  78 S9        29.94S
PAXTON           N/A     69  59  69 SW3         N/A
BRADY            N/A     68  62  79 CALM        N/A
CALLAWAY         N/A     69  65  88 SW7         N/A
$$

...OBSERVATIONS IN CENTRAL LINCOLN COUNTY AREA...

CITY           SKY/WX    TMP DP  RH WIND       PRES   REMARKS
N.P. AIRPORT   SUNNY     71  59  65 S8        29.94F
N.P. DOWNTOWN    N/A     71  60  67 CALM        N/A
N.P. SOUTHEAST   N/A     71  59  66 S3          N/A
N.P. HILLCREST   N/A     70  60  70 S3          N/A
$$

...SOME OBSERVATIONS FROM AROUND THE REGION...

CITY           SKY/WX    TMP DP  RH WIND       PRES   REMARKS
DENVER         PTSUNNY   74  46  36 E3        30.12R
LARAMIE        CLOUDY    62  48  60 SW9       30.23R
CHEYENNE       CLOUDY    70  47  43 W15       30.15R
SCOTTSBLUFF    CLOUDY    73  56  54 NW8       29.98R
RAPID CITY     CLOUDY    64  55  72 N25G35    29.98R
PIERRE         CLOUDY    73  59  61 NW21G28   29.80R
WINNER         FAIR      80  53  39 SW15      29.82R
SIOUX FALLS    MOSUNNY   72  67  84 S13       29.89S
OMAHA          MOSUNNY   74  69  85 SE9       29.96S
GRAND ISLAND   SUNNY     70  65  84 S13       29.96R
KANSAS CITY    SUNNY     79  72  79 S7        30.00R
WICHITA        MOSUNNY   76  67  73 S12       29.97S
HAYS           SUNNY     73  61  64 S10       29.95R
LIBERAL        SUNNY     73  57  56 S14       29.99S
GOODLAND       SUNNY     71  52  50 NW7       29.98S
$$



USA.gov is the U.S. government's official web portal to all federal, state and local government web resources and services.